www.pogodaiklimat.ru

Погода и климат >> Архив погоды >> Россия >> Краснодарский край >> Кореновск


ПОГОДА в Кореновске

  • Прогноз погоды в Кореновске
  • Монитор погоды в Кореновске

АРХИВ ПОГОДЫ в Кореновске

Время (UTC), дата Ветер
(напр.,м/с)
 
Видим.   Явления Облачность Т
(С)
Тd
(С)
f
(%)
Тe
(С)
Тes
(С)
Комфортность P
(гПа)
Po
(гПа)
Тmin
(С)
Tmax
(С)
R
(мм)
R24
(мм)
S
(см)
09 14.04 В 4 10 км 10/10 600 м
[Cb cap]
+15.8 +9.7 67 +15 +15 1011.9 1006.2
12 14.04 10 км н/о +16.9 +10.2 65 +17 +17 1010.2 1004.5
15 14.04 СВ 3 10 км в посл. час ливневой дождь 10/10 600 м
[Cb cap]
+17.3 +10.4 64 +17 +17 1008.7 1003.0 +17.6 0.0
18 14.04 СВ 3 10 км {ливн. осадки} 10/4 1000 м
[Sc Ci fib]
+14.2 +9.2 72 +13 +13 1008.0 1002.3
21 14.04 В 3 10 км 10/4 1000 м
[Sc Ci fib]
+14.5 +10.4 76 +14 +14 1006.8 1001.1
00 15.04 СВ 1 10 км ясно +11.8 +10.3 91 +12 +12 1006.8 1001.0
03 15.04 З 2 4000 м слаб. ливневой дождь 10/10 300 м
[Cb cap]
+12.3 +11.1 92 +11 +11 1008.6 1002.9 +11.8 3
06 15.04 ЮЗ 3 10 км {ливн. осадки} 9/3 600 м
[Cb cap Ac trans Ci fib]
+13.7 +10.6 82 +13 +15 1010.6 1004.9 +11.5
09 15.04 Ю 4
{11}
10 км 10/9 600 м
[Cb cap Ci fib]
+16.5 +9.8 65 +16 +17 1011.9 1006.2
12 15.04 ЮЗ 5
{10}
10 км 10/8 600 м
[Cb cap Ci fib]
+17.2 +7.0 51 +17 +17 1012.3 1006.6
15 15.04 З 3
{10}
10 км 8/3 600 м
[Cb cap Ci]
+16.1 +7.2 56 +16 +16 1012.2 1006.5 +18.3 5
18 15.04 штиль 0 10 км 10/0
[Ci]
+11.7 +8.0 78 +11 +11 1013.0 1007.2
21 15.04 СЗ 1 10 км 10/5 600 м
[Cb cap Ac und]
+11.3 +8.0 80 +11 +11 1013.4 1007.6
00 16.04 штиль 0 10 км слаб. ливневой дождь 10/10 600 м
[Cb cap]
+10.2 +8.8 91 +9 +9 1013.7 1007.9
03 16.04 СЗ 2 10 км слаб. ливневой дождь 10/10 600 м
[Cb cap]
+10.0 +8.9 93 +8 +8 1014.1 1008.3 +9.9 11
06 16.04 штиль 0 10 км в посл. час ливневой дождь 9/6 600 м
[Cb cap Ac trans]
+11.3 +9.1 86 +11 +13 1014.4 1008.6
09 16.04 ЮЗ 2 10 км 9/9 600 м
[Cb cap]
+14.2 +8.3 68 +14 +15 1013.9 1008.2
12 16.04 СЗ 4 10 км 9/9 600 м
[Cb cap]
+13.7 +9.1 74 +12 +13 1013.3 1007.5
15 16.04 С 4 10 км 9/9 600 м
[Cb cap]
+12.8 +8.6 76 +11 +11 1013.7 1007.9 +17.1 1
18 16.04 С 2 10 км 10/0
[Ci]
+10.2 +8.2 87 +9 +9 1014.1 1008.3
21 16.04 СЗ 2 10 км 10/0
[Ac trans Ci fib]
+9.0 +7.2 88 +7 +7 1013.6 1007.7
00 17.04 СЗ 2 10 км 10/0
[Ci]
+9.0 +6.3 83 +7 +7 1012.3 1006.5
03 17.04 З 2 10 км 10/3 600 м
[Cb cap Ac trans Ci fib]
+8.4 +6.9 90 +6 +6 1011.4 1005.5 +8.2
06 17.04 СЗ 2 4000 м слаб. ливневой дождь 10/10 600 м
[Cb cap]
+10.1 +9.0 93 +8 +8 1011.3 1005.5
09 17.04 СВ 3 10 км {ливн. осадки} 10/10 600 м
[Cb cap]
+11.4 +9.0 85 +10 +10 1011.5 1005.7
12 17.04 СВ 5-10
{12}
10 км {ливн. осадки} 10/10 600 м
[Cb cap]
+9.4 +6.6 83 +6 +6 1013.2 1007.4
15 17.04 СВ 6-12
{12}
10 км в посл. час ливневой дождь 10/10 600 м
[Cb cap]
+6.8 +4.2 83 +2 +2 1015.9 1010.0 +11.6 0.8
18 17.04 СВ 6-10
{13}
10 км {ливн. осадки} 10/10 600 м
[Cb cap]
+5.6 +2.3 79 +1 +1 1018.5 1012.5
21 17.04 СВ 5-10
{12}
10 км слаб. ливневой дождь 10/10 600 м
[Cb cap]
+4.6 +2.1 84 -0 -0 1019.8 1013.8
00 18.04 СВ 5
{12}
10 км {ливн. осадки} 10/10 600 м
[Cb cap]
+3.1 +0.3 82 -2 -2 1019.9 1013.9
03 18.04 В 5
{11}
10 км слаб. ливневой дождь 10/10 600 м
[Cb cap]
+2.5 -0.3 82 -3 -3 1020.7 1014.6 +2.5 0.0
06 18.04 СВ 3
{10}
4000 м слаб. ливневой снег 10/10 600 м
[Cb cap]
+1.3 +0.1 92 -3 -3 1022.2 1016.1 +0.6
09 18.04 СВ 5
{10}
10 км {ливн. осадки} 10/6 600 м
[Cb cap Ac As]
+5.2 -0.9 65 +1 +2 1022.7 1016.7
12 18.04 В 5
{10}
10 км {ливн. осадки} 10/5 600 м
[Cb cap Ac As]
+7.7 +0.2 59 +4 +5 1022.1 1016.2
15 18.04 В 4
{11}
10 км {ливн. осадки} 10/4 600 м
[Cb cap Ac As]
+7.9 -0.8 54 +5 +5 1021.7 1015.8 +8.5 2
18 18.04 СВ 3 10 км {ливн. осадки} 9/4 1500 м
[Sc Ac trans]
+6.7 -2.3 53 +4 +4 1022.3 1016.4
21 18.04 В 4 10 км 10/0
[Ac As]
+5.9 -5.1 45 +3 +3 1021.6 1015.6
00 19.04 В 3 10 км 10/0
[Ac As]
+4.7 -5.1 49 +2 +2 1020.4 1014.4
03 19.04 В 3 10 км 10/3 600 м
[Cb cap Ac As]
+3.8 -4.9 53 +1 +1 1019.7 1013.7 +3.8
06 19.04 В 4
{10}
10 км 10/5 1000 м
[Sc Ac As]
+5.3 -4.1 51 +2 +3 1019.9 1013.9 +3.8
09 19.04 В 7-12
{15}
10 км 10/8 1000 м
[Sc Ac As]
+8.2 -6.9 34 +5 +5 1019.7 1013.8
12 19.04 В 6-11
{13}
10 км в посл. час ливневой дождь 10/8 600 м
[Cb cap Ac As]
+9.1 -3.3 41 +6 +6 1019.3 1013.4
15 19.04 В 4-10
{13}
10 км 9/9 600 м
[Cb cap]
+8.4 -2.8 45 +6 +6 1019.7 1013.8 +9.3 0.0
18 19.04 В 5
{11}
10 км 9/5 1500 м
[Sc Ac trans]
+7.3 -7.4 34 +4 +4 1020.7 1014.8
21 19.04 В 5
{12}
10 км 4/0
[Ac trans]
+5.4 -7.0 40 +2 +2 1020.3 1014.3
00 20.04 СВ 4 10 км 1/0
[Ac trans]
+3.3 -6.0 50 -1 -1 1020.1 1014.1
03 20.04 СВ 4 10 км 3/0
[Ac trans Ci fib]
+2.2 -4.9 59 -2 -2 1020.3 1014.3 +2.1
06 20.04 В 7-13
{13}
10 км 8/0
[Ac trans Cc]
+8.2 -7.1 33 +5 +6 1020.7 1014.8
09 20.04 В 7-12
{15}
10 км 9/5 600 м
[Cb cap Ac trans Cc]
+10.7 -2.8 39 +8 +9 1021.2 1015.3
12 20.04 В 7-13
{14}
10 км 9/6 600 м
[Cb cap Ac trans Ci fib]
+11.0 -2.8 38 +8 +9 1021.2 1015.4
15 20.04 В 4
{13}
10 км 9/3 600 м
[Cb cap Ac trans Ci fib]
+10.2 -3.2 39 +8 +8 1021.5 1015.6 +12.1
18 20.04 В 3
{11}
10 км 5/0
[Ci fib]
+7.5 -2.5 49 +5 +5 1021.9 1015.9
21 20.04 СВ 3 10 км 4/0
[Ci fib]
+5.2 -2.0 60 +2 +2 1021.4 1015.4
00 21.04 СВ 3 10 км ясно +3.9 -2.2 64 +1 +1 1020.4 1014.4
03 21.04 СВ 4 10 км 4/3 1000 м
[Sc Ci fib]
+4.0 -2.1 64 0 0 1020.0 1014.0 +3.5
06 21.04 В 6-11
{11}
10 км 8/0
[Ac trans Cc]
+9.0 -3.6 41 +6 +8 1020.2 1014.3

 

Местоположение метеостанции Кореновск (Краснодарский край, Россия): широта 45.47 долгота 39.48 высота над уровнем моря 48 м.

В архиве по умолчанию представлена погода в Кореновске за последнюю неделю. Архивные данные за месяц целиком и за предыдущие месяцы, начиная с января 2011 года, Вы можете получить, выбрав интересующий диапазон дат из раскрывающегося списка и нажав кнопку "Ввод!".


*Определитесь, кто Вы:
робот инопланетянин человек

Внимание! Время в таблицах - всемирное. Для получения местного времени необходимо прибавить поправку, которая равна 3 ч.

Смотрите также архив погоды в соседних городах и на ближайших метеорологических станциях:

Погода в Усть-Лабинске (Краснодарский край, Россия) (33 км)
Погода в Тимашевске (Краснодарский край, Россия) (46 км)
Погода в Краснодаре (Краснодарский край, Россия) (59 км)
Погода в Тихорецке (Краснодарский край, Россия) (63 км)
Погода в Каневской (Краснодарский край, Россия) (78 км)
Погода в Сосыке (Краснодарский край, Россия) (78 км)
Погода в Кропоткине (Краснодарский край, Россия) (85 км)
Погода в Белореченске (Краснодарский край, Россия) (87 км)
Погода в Дондуковской (Адыгея, Россия) (96 км)
Погода в Горячем Ключе (Краснодарский край, Россия) (98 км)

Пояснения к столбцам:

Ветер - указаны скорость ветра в м/с - средняя за 10 мин, порывы в срок и между сроками (в фигурных скобках) и направление, откуда дует ветер: С - северный, СВ - северо-восточный, В - восточный, ЮВ - юго-восточный, Ю - южный, ЮЗ - юго-западный, З - западный, СЗ - северо-западный.
Видимость - горизонтальная дальность видимости в метрах или километрах. При видимости от 1 до 10 км при отсутствии осадков обычно наблюдается дымка, при ухудшении видимости до 1 км и менее - туман. В сухую погоду видимость может ухудшаться дымом, пылью или мглою.
Явления - указаны атмосферные явления, наблюдавшиеся в срок или в последний час перед сроком; фигурными скобками обозначены явления, наблюдавшиеся между сроками (за 1-3 часа до срока); квадратными скобками обозначены град или гололедные отложения с указанием их диаметра в мм.
Облачность - указаны через наклонную черту общая и нижняя облачность в баллах и высота нижней границы облаков в метрах; квадратными скобками обозначены формы облаков: Ci - перистые, Cs - перисто-слоистые, Cc - перисто-кучевые, Ac - высококучевые, As - высокослоистые, Sc - слоисто-кучевые, Ns - слоисто-дождевые, Cu - кучевые, Cb - кучево-дождевые. Подробнее классификацию облаков см. в Атласе облаков (PDF).
T - Температура воздуха - температура, измеренная на высоте 2 м над землей.
Td - Температура точки росы - температура, при понижении до которой содержащийся в воздухе водяной пар достигнет насыщения.
f - Относительная влажность воздуха - влажноcть воздуха, измеренная на высоте 2 м над землей.
Te - Эффективная температура - температура, которую ощущает одетый по сезону человек в тени. Характеристика душности погоды. При расчете учитывается влияние влажности воздуха и скорости ветра на теплоощущения человека.
Tes - Эффективная температура на солнце - температура, которую ощущает человек, с поправкой на солнечный нагрев. Характеристика знойности погоды. Зависит от высоты солнца над горизонтом, облачности и скорости ветра. Ночью, в пасмурную погоду, а также при ветре 12 м/с и более поправка равна нулю.
P - Атмосферное давление - приведенное к уровню моря атмосферное давление.
Po - Атмосферное давление - измеренное на уровне метеостанции атмосферное давление.
Tmin - Минимальная температура - минимум температуры воздуха на высоте 2 м над землей.
Tmax - Максимальная температура - максимум температуры воздуха на высоте 2 м над землей.
R - Количество осадков - Количество выпавших осадков за период времени, мм. При наведении курсора мыши на число - период времени, за который выпало указанное количество осадков.
R24 - Количество осадков - Количество выпавших осадков за 24 часа, мм.
S - Снежный покров - Высота снежного покрова, см. При наведении курсора мыши на число - состояние снежного покрова и степень покрытия местности в баллах.